Date String (YYYY-MM-DD hh:mm:ss) UTC,Instrument flags,absolute air pressure of the measurement (hPa),sample flow rate (lpm),inlet stack bypass flow (lpm),air temperature of the measurement (°C),ambient temperature measured by the external sensor (°C),aerosol sample conditioner tube jacket temperature (°C),OPC LED temperature (°C),internal box temperature (°C),relative humidity of the measurement (%),span deviation,mass concentration of particles derived from Lorenz-Mie calculation of OPC scattering (μg/m³),mass concentration of particles derived from Lorenz-Mie calculation of OPC scattering (μg/m³),mass concentration of particles derived from Lorenz-Mie calculation of OPC scattering (μg/m³)
DateTimeUTC,F1_M11,P_M11,Q1_M11,Q2_M11,T1_M11,T2_M11,T3_M11,T4_M11,T5_M11,U1_M11,ZSPAN_M11,X0_M11,X2_M11,X1_M11
2023-06-18 12:00:00,SystemResetWarning,0826.9,5.01,000.00,030.1,028.5,000.0,038.7,031.6,15.6,0000.0,0006.60,0003.98,0003.55
2023-06-18 12:01:00,SystemResetWarning,0826.9,5.01,000.00,030.1,028.5,000.0,038.7,031.6,15.5,0000.0,0007.23,0004.01,0003.54
2023-06-18 12:02:00,SystemResetWarning,0826.9,5.00,000.00,030.1,028.5,000.0,038.7,031.6,15.3,0000.0,0007.41,0004.01,0003.54
2023-06-18 12:03:00,SystemResetWarning,0826.9,4.98,000.00,030.1,028.5,000.0,038.7,031.6,15.3,0000.0,0007.51,0004.03,0003.54
2023-06-18 12:04:00,SystemResetWarning,0826.9,4.99,000.00,030.1,028.5,000.0,038.7,031.6,15.5,0000.0,0007.52,0003.99,0003.54
2023-06-18 12:05:00,SystemResetWarning,0827.0,4.99,000.00,030.2,028.5,000.0,038.7,031.6,16.6,0000.0,0007.63,0003.96,0003.54
2023-06-18 12:06:00,SystemResetWarning,0827.0,5.00,000.00,030.2,028.5,000.0,038.7,031.6,17.4,0000.0,0007.75,0003.95,0003.53
2023-06-18 12:07:00,SystemResetWarning,0827.1,5.01,000.00,030.2,028.5,000.0,038.7,031.6,16.5,0000.0,0008.07,0003.93,0003.53
2023-06-18 12:08:00,SystemResetWarning,0827.1,5.01,000.00,030.2,028.5,000.0,038.7,031.7,16.2,0000.0,0008.49,0003.92,0003.53
2023-06-18 12:09:00,SystemResetWarning,0827.0,5.01,000.00,030.2,028.5,000.0,038.7,031.6,16.4,0000.0,0008.55,0003.95,0003.53
2023-06-18 12:10:00,SystemResetWarning,0827.0,5.00,000.00,030.2,028.5,000.0,038.7,031.7,16.6,0000.0,0008.47,0003.94,0003.53
2023-06-18 12:11:00,SystemResetWarning,0827.1,5.01,000.00,030.2,028.5,000.0,038.8,031.7,17.0,0000.0,0008.35,0003.92,0003.53
2023-06-18 12:12:00,SystemResetWarning,0827.1,5.00,000.00,030.2,028.5,000.0,038.8,031.7,17.3,0000.0,0008.60,0003.89,0003.52
2023-06-18 12:13:00,SystemResetWarning,0827.0,4.99,000.00,030.2,028.5,000.0,038.8,031.6,17.3,0000.0,0008.54,0003.89,0003.52
2023-06-18 12:14:00,SystemResetWarning,0827.0,5.00,000.00,030.2,028.5,000.0,038.8,031.7,17.2,0000.0,0008.45,0003.87,0003.51
2023-06-18 12:15:00,SystemResetWarning,0827.1,4.99,000.00,030.2,028.5,000.0,038.8,031.7,17.4,0000.0,0008.37,0003.85,0003.50
2023-06-18 12:16:00,SystemResetWarning,0827.0,5.00,000.00,030.2,028.5,000.0,038.8,031.7,17.6,0000.0,0008.23,0003.86,0003.49
2023-06-18 12:17:00,SystemResetWarning,0827.1,5.00,000.00,030.2,028.5,000.0,038.8,031.7,17.3,0000.0,0008.19,0003.87,0003.49
2023-06-18 12:18:00,SystemResetWarning,0827.0,5.00,000.00,030.2,028.5,000.0,038.8,031.7,16.7,0000.0,0007.82,0003.87,0003.48
2023-06-18 12:19:00,SystemResetWarning,0827.1,5.00,000.00,030.2,028.5,000.0,038.8,031.7,16.0,0000.0,0007.42,0003.88,0003.47
2023-06-18 12:20:00,SystemResetWarning,0827.1,5.00,000.00,030.2,028.6,000.0,038.8,031.7,16.5,0000.0,0007.58,0003.88,0003.46
2023-06-18 12:21:00,SystemResetWarning,0827.1,5.01,000.00,030.2,028.6,000.0,038.8,031.7,17.0,0000.0,0008.09,0003.87,0003.46
2023-06-18 12:22:00,SystemResetWarning,0827.1,5.00,000.00,030.2,028.6,000.0,038.8,031.7,17.4,0000.0,0008.57,0003.87,0003.45
2023-06-18 12:23:00,SystemResetWarning,0827.0,5.00,000.00,030.2,028.6,000.0,038.8,031.7,17.4,0000.0,0008.09,0003.84,0003.45
2023-06-18 12:24:00,SystemResetWarning,0827.0,5.00,000.00,030.2,028.6,000.0,038.8,031.8,16.9,0000.0,0008.39,0003.83,0003.45
2023-06-18 12:25:00,SystemResetWarning,0827.0,5.00,000.00,030.2,028.6,000.0,038.8,031.7,17.1,0000.0,0008.41,0003.84,0003.45
2023-06-18 12:26:00,SystemResetWarning,0827.0,4.99,000.00,030.3,028.6,000.0,038.8,031.8,17.0,0000.0,0008.42,0003.86,0003.46
2023-06-18 12:27:00,SystemResetWarning,0827.1,4.99,000.00,030.3,028.6,000.0,038.8,031.8,16.5,0000.0,0008.72,0003.89,0003.47
2023-06-18 12:28:00,SystemResetWarning,0827.1,5.00,000.00,030.3,028.6,000.0,038.8,031.8,15.5,0000.0,0008.84,0003.91,0003.47
2023-06-18 12:29:00,SystemResetWarning,0827.1,5.00,000.00,030.3,028.6,000.0,038.8,031.7,15.9,0000.0,0008.85,0003.92,0003.48
2023-06-18 12:30:00,SystemResetWarning,0827.0,5.00,000.00,030.3,028.6,000.0,038.8,031.8,16.3,0000.0,0008.92,0003.91,0003.48
2023-06-18 12:31:00,SystemResetWarning,0827.1,5.01,000.00,030.3,028.6,000.0,038.9,031.8,16.3,0000.0,0008.72,0003.88,0003.48
2023-06-18 12:32:00,SystemResetWarning,0827.1,5.01,000.00,030.3,028.6,000.0,038.9,031.7,16.4,0000.0,0008.19,0003.88,0003.48
2023-06-18 12:33:00,SystemResetWarning,0827.2,4.99,000.00,030.3,028.6,000.0,038.9,031.8,16.3,0000.0,0007.73,0003.87,0003.48
2023-06-18 12:34:00,SystemResetWarning,0827.2,5.00,000.00,030.3,028.6,000.0,038.9,031.8,16.1,0000.0,0008.01,0003.87,0003.49
2023-06-18 12:35:00,SystemResetWarning,0827.2,5.00,000.00,030.3,028.6,000.0,038.9,031.8,16.1,0000.0,0007.95,0003.87,0003.49
2023-06-18 12:36:00,SystemResetWarning,0827.2,4.99,000.00,030.3,028.6,000.0,038.9,031.8,16.2,0000.0,0008.01,0003.88,0003.49
2023-06-18 12:37:00,SystemResetWarning,0827.2,5.00,000.00,030.3,028.6,000.0,038.9,031.7,16.5,0000.0,0008.08,0003.89,0003.49
2023-06-18 12:38:00,SystemResetWarning,0827.2,5.01,000.00,030.3,028.6,000.0,038.9,031.7,16.6,0000.0,0007.79,0003.87,0003.49
2023-06-18 12:39:00,SystemResetWarning,0827.2,5.00,000.00,030.3,028.6,000.0,038.9,031.7,17.4,0000.0,0007.68,0003.84,0003.49
2023-06-18 12:40:00,SystemResetWarning,0827.2,5.00,000.00,030.3,028.6,000.0,038.9,031.7,19.2,0000.0,0007.67,0003.83,0003.48
2023-06-18 12:41:00,SystemResetWarning,0827.3,5.00,000.00,030.3,028.6,000.0,038.9,031.8,19.8,0000.0,0007.77,0003.87,0003.48
2023-06-18 12:42:00,SystemResetWarning,0827.3,5.01,000.00,030.3,028.6,000.0,038.9,031.8,19.4,0000.0,0007.96,0003.92,0003.49
2023-06-18 12:43:00,SystemResetWarning,0827.3,5.00,000.00,030.3,028.6,000.0,038.9,031.7,18.7,0000.0,0008.28,0003.93,0003.49
2023-06-18 12:44:00,SystemResetWarning,0827.4,4.99,000.00,030.3,028.6,000.0,038.9,031.8,19.4,0000.0,0009.23,0003.98,0003.49
2023-06-18 12:45:00,SystemResetWarning,0827.4,4.99,000.00,030.3,028.6,000.0,038.9,031.7,20.3,0000.0,0008.85,0004.00,0003.49
2023-06-18 12:46:00,SystemResetWarning,0827.3,5.00,000.00,030.3,028.6,000.0,038.9,031.7,20.5,0000.0,0008.50,0004.00,0003.49
2023-06-18 12:47:00,SystemResetWarning,0827.2,5.01,000.00,030.3,028.6,000.0,038.9,031.7,20.5,0000.0,0008.39,0003.99,0003.49
2023-06-18 12:48:00,SystemResetWarning,0827.2,5.01,000.00,030.3,028.5,000.0,038.9,031.7,20.3,0000.0,0008.41,0004.01,0003.49
2023-06-18 12:49:00,SystemResetWarning,0827.2,5.01,000.00,030.3,028.5,000.0,038.9,031.7,19.6,0000.0,0008.39,0004.03,0003.51
2023-06-18 12:50:00,SystemResetWarning,0827.2,5.00,000.00,030.3,028.5,000.0,038.9,031.7,18.7,0000.0,0008.36,0004.04,0003.52
2023-06-18 12:51:00,SystemResetWarning,0827.2,4.99,000.00,030.3,028.5,000.0,038.9,031.7,18.9,0000.0,0008.40,0004.06,0003.54
2023-06-18 12:52:00,SystemResetWarning,0827.2,4.99,000.00,030.3,028.5,000.0,038.9,031.7,18.4,0000.0,0008.27,0004.00,0003.54
2023-06-18 12:53:00,SystemResetWarning,0827.2,5.00,000.00,030.3,028.5,000.0,038.9,031.7,18.5,0000.0,0009.42,0003.94,0003.54
2023-06-18 12:54:00,SystemResetWarning,0827.3,5.00,000.00,030.3,028.6,000.0,038.9,031.7,19.0,0000.0,0009.25,0003.94,0003.55
2023-06-18 12:55:00,SystemResetWarning,0827.3,5.00,000.00,030.3,028.5,000.0,038.9,031.7,19.0,0000.0,0008.37,0003.90,0003.55
2023-06-18 12:56:00,SystemResetWarning,0827.4,5.00,000.00,030.3,028.5,000.0,038.9,031.7,19.7,0000.0,0008.32,0003.90,0003.56
2023-06-18 12:57:00,SystemResetWarning,0827.3,5.00,000.00,030.3,028.5,000.0,038.9,031.7,20.3,0000.0,0008.64,0003.92,0003.58
2023-06-18 12:58:00,SystemResetWarning,0827.4,5.00,000.00,030.3,028.5,000.0,038.9,031.7,19.7,0000.0,0008.74,0003.92,0003.57
2023-06-18 12:59:00,SystemResetWarning,0827.3,5.00,000.00,030.3,028.5,000.0,038.9,031.7,19.1,0000.0,0008.94,0003.91,0003.58
